Regional Weather Roundup
Issued by NWS San Angelo, TX

Current Version | Previous Version | Text Only | Print | Product List | Glossary On
Versions: 1 2 3 4 5 6 7 8 9 10 11 12 13 14 15 16 17 18 19 20 21 22 23 24 25 26 27 28 29 30 31 32 33 34 35 36 37 38 39 40 41 42 43 44 45 46 47 48 49 50
000
ASUS44 KSJT 270410
RWRSJT
WEST CENTRAL TEXAS REGIONAL WEATHER ROUNDUP
NATIONAL WEATHER SERVICE SAN ANGELO TX
1000 PM CST WED NOV 26 2014

NOTE: "FAIR" INDICATES FEW OR NO CLOUDS BELOW 12,000 FEET WITH NO
SIGNIFICANT WEATHER AND/OR OBSTRUCTIONS TO VISIBILITY.

TXZ049-054-064>066-071>073-076>078-098-099-113-114-127-128-139-140-
154-155-168>170-270500
...LOCATIONS ACROSS WEST CENTRAL TEXAS...

CITY           SKY/WX    TMP DP  RH WIND       PRES   REMARKS
SAN ANGELO     CLEAR     44  34  67 NE9       30.35R WCI  39
ABILENE        CLEAR     45  34  65 NE5       30.38R
DYESS AFB      CLEAR     39  31  73 SW6       30.37R WCI  35
JUNCTION       CLEAR     48  30  49 CALM      30.35R
SWEETWATER     CLEAR     47  34  59 E3        30.40S
BROWNWOOD      PTCLDY    43  36  75 S3        30.37R
COLEMAN        CLEAR     45  37  75 CALM      30.37R
SONORA         CLEAR     48  32  53 N6        30.38R
OZONA          FAIR      45  30  57 N5        30.37R
BRADY          CLEAR     48  34  57 NE12      30.35R
$$

TEXAS PANHANDLE/OKLAHOMA PANHANDLE

CITY           SKY/WX    TMP DP  RH WIND       PRES   REMARKS
AMARILLO       CLEAR     37  23  56 E8        30.39R WCI  31
BORGER         CLEAR     39  20  46 CALM      30.39R
CANADIAN       CLEAR     31  20  63 CALM      30.41R
DALHART        CLEAR     31  20  63 SE7       30.37R WCI  24
DUMAS            N/A     29  17  62 SE5       30.38R WCI  23
GUYMON         NOT AVBL
HEREFORD       CLEAR     33  25  75 NE5       30.37S WCI  28
PAMPA          CLEAR     32  20  62 E6        30.39R WCI  26
PERRYTON       CLEAR     32  18  57 E7        30.39R WCI  25
$$

SOUTHERN PANHANDLE/SOUTH PLAINS/ROLLING PLAINS

CITY           SKY/WX    TMP DP  RH WIND       PRES   REMARKS
LUBBOCK        CLEAR     37  25  61 E8        30.36R WCI  31
SNYDER         CLEAR     42  33  69 E7        30.38R WCI  38
CHILDRESS      CLEAR     44  24  45 NE7       30.40R
SEMINOLE       CLEAR     40  29  66 E6        30.35R WCI  35
$$

PERMIAN BASIN

CITY           SKY/WX    TMP DP  RH WIND       PRES   REMARKS
MIDLAND        CLEAR     48  32  53 E10       30.34R
ODESSA         CLEAR     43  29  57 E10       30.34R WCI  37
WINK           CLEAR     47  25  42 E6        30.31R
$$

FAR WEST/SOUTHWEST MOUNTAINS/TRANS PECOS

CITY           SKY/WX    TMP DP  RH WIND       PRES   REMARKS
ALPINE         CLEAR     39  25  56 W10       30.41R WCI  32
DRYDEN           N/A     55  24  30 N9        30.31R
EL PASO        CLEAR     52  20  28 NE3       30.32R
FORT STOCKTON  CLEAR     47  24  40 SE8       30.32R
GUADALUPE PASS NOT AVBL
MARFA          CLEAR     36  18  48 N9        30.38R WCI  29
PECOS          CLEAR     45  24  43 CALM      30.33R
$$

DALLAS/FORT WORTH METROPLEX

CITY           SKY/WX    TMP DP  RH WIND       PRES   REMARKS
DFW AIRPORT    CLEAR     47  34  60 N12       30.35R
FTW MEACHAM    CLEAR     50  34  54 N9        30.36R
DAL-EXECUTIVE  CLEAR     51  34  52 N7        30.36R
GRAND PRAIRIE  CLEAR     53  36  52 N5        30.38R
ADDISON        CLEAR     51  34  52 N8        30.37R
MESQUITE       CLEAR     51  32  48 N6        30.36R
LANCASTER      CLEAR     48  32  54 N3        30.38R
$$

NORTH CENTRAL TEXAS

CITY           SKY/WX    TMP DP  RH WIND       PRES   REMARKS
SHRMAN/DENISON CLEAR     48  31  51 N9        30.39R
GAINESVILLE    NOT AVBL
BRIDGEPORT     CLEAR     46  35  65 NE3       30.39R
DENTON         CLEAR     45  33  63 N7        30.37R
WAXAHACHIE     CLEAR     47  38  70 NW8       30.37R
GRANBURY       CLEAR     46  37  69 CALM      30.39R
$$

WESTERN NORTH TEXAS

CITY           SKY/WX    TMP DP  RH WIND       PRES   REMARKS
WICHITA FALLS  CLEAR     41  31  67 NE9       30.39R WCI  35
VERNON         CLEAR     43  30  61 N7        30.41R WCI  39
BRECKENRIDGE   CLEAR     44  35  69 CALM      30.39R
COMANCHE       CLEAR     48  38  68 NW5       30.37R
$$

CENTRAL AND SOUTH CENTRAL TEXAS

CITY           SKY/WX    TMP DP  RH WIND       PRES   REMARKS
AUSTIN/BERGSTM CLEAR     51  37  58 N7        30.32R
WACO           CLEAR     46  37  71 N6        30.35R
HILLSBORO      CLEAR     46  35  63 N9        30.36R
TEMPLE         CLEAR     46  32  57 N7        30.34R
KILLEEN-GRAY   CLEAR     51  35  53 N13       30.35R
FORT HOOD      CLEAR     54  34  46 NW6       30.34R
GEORGETOWN     CLEAR     50  34  53 N7        30.33R
LAGO VISTA     FAIR      55  32  42 NE9       30.33R
SAN MARCOS     CLEAR     55  36  47 N12       30.32R
NEW BRAUNFELS  CLEAR     56  37  49 NE10      30.29R
RANDOLPH AFB   CLEAR     51  38  60 N7        30.30R
SAN ANTONIO    CLEAR     56  38  50 CALM      30.30R
STINSON        CLEAR     48  40  73 CALM      30.28R
PLEASANTON     NOT AVBL
LA GRANGE      CLEAR     50  44  81 CALM      30.28R
GIDDINGS       CLEAR     55  36  47 N5        30.35R
$$

EAST TEXAS

CITY           SKY/WX    TMP DP  RH WIND       PRES   REMARKS
PARIS          CLEAR     48  28  46 NW9       30.34R
CLARKSVILLE    NOT AVBL
TYLER          CLEAR     51  35  54 CALM      30.33R
LONGVIEW       CLEAR     46  35  65 W3        30.31R
PALESTINE      CLEAR     42  39  87 CALM      30.34R
NACOGDOCHES    CLEAR     43  36  75 CALM      30.32R
$$

TEXAS HILL COUNTRY AND EDWARDS PLATEAU

CITY           SKY/WX    TMP DP  RH WIND       PRES   REMARKS
LLANO          CLEAR     48  34  57 N3        30.38R
HORSESHOE BAY  FAIR      43  35  74 CALM      30.34R
KERRVILLE      CLEAR     45  33  61 CALM      30.33R
FREDERICKSBRG  CLEAR     42  34  74 CALM      30.34R
ROCKSPRINGS    CLEAR     52  30  43 MISG      30.35R
HONDO          CLEAR     47  32  56 N8        30.31R
UVALDE         CLEAR     49  31  49 CALM      30.29R
DEL RIO        CLEAR     49  38  65 N3        30.27R
$$

SOUTHEAST TEXAS

CITY           SKY/WX    TMP DP  RH WIND       PRES   REMARKS
COLLEGE STN    CLEAR     55  33  43 N5        30.31R
CALDWELL       CLEAR     52  34  50 N5        30.34R
CROCKETT       CLEAR     45  41  87 CALM      30.35R
BRENHAM        CLEAR     55  39  54 N3        30.31R
HUNTSVILLE     CLEAR     48  39  71 CALM      30.30R
CONROE         CLEAR     43  41  93 NW5       30.30R
HOUSTON BUSH   CLEAR     52  44  74 CALM      30.29R
HOUSTON HOBBY  CLEAR     54  43  66 SW3       30.29R
PERLAND        CLEAR     55  44  66 VRB6      30.31R
WHARTON        CLEAR     50  46  87 CALM      30.30S
$$

THE UPPER TEXAS COAST

CITY           SKY/WX    TMP DP  RH WIND       PRES   REMARKS
ORANGE         CLEAR     55  44  66 SW5       30.29S
PORT ARTHUR    CLEAR     50  45  83 W5        30.28R
GALVESTON      CLEAR     57  50  77 SW6       30.31R
ANGLETON       CLEAR     47  46  97 CALM      30.30R
BAY CITY         N/A     51  50  96 CALM      30.29S
$$

TEXAS COASTAL BEND, RIO GRANDE PLAINS DEEP SOUTH TEXAS

CITY           SKY/WX    TMP DP  RH WIND       PRES   REMARKS
VICTORIA       CLEAR     51  45  79 SW3       30.30R
BEEVILLE       FAIR      53  40  61 CALM      30.28S
ROCKPORT       CLEAR     59  53  80 S6        30.28R
PORT ARANSAS   FAIR      61  57  87 S8        30.29R
PORT LAVACA    CLEAR     52  49  91 S3        30.29
CORPUS CHRISTI CLEAR     54  51  90 S8        30.29R
KINGSVILLE NAS CLEAR     55  50  83 S8        30.29R
COTULLA        CLEAR     51  36  56 SE6       30.27R
LAREDO         CLEAR     56  37  48 SE6       30.30R
BROWNSVILLE    CLEAR     54  52  93 SE5       30.31R
PORT ISABEL    CLEAR     55  53  93 S6        30.30R
HEBBRONVILLE   CLEAR     54  38  54 S6        30.30R
MCALLEN        CLEAR     54  50  86 SE6       30.30S
WESLACO        CLEAR     56  49  79 SE3       30.30S
FALFURRIAS     CLEAR     55  43  64 S6        30.29R
EDINBURG       CLEAR     55  48  79 S3        30.30S
$$


USA.gov is the U.S. government's official web portal to all federal, state and local government web resources and services.